Flag for U.S.A. Weather past 2 weeks in Overland Park, Kansas, U.S.A.

Now
72 °F

Overcast.


Feels Like: 70 °F
Forecast: 69 / 77 °F
Wind: 6 mph from Northeast

Location: Johnson County Executive Airport

Current Time: Jul 2, 2015 at 2:22:50 PM

Latest Report: Jul 2, 2015 at 1:53 PM


Visibility: 10 mi

Pressure: 29.89 "Hg

Humidity: 87%

Dew point: 68 °F

Location of Overland ParkLocation

Historic Weather in Overland Park — Graph

°F

Overland Park temperature yesterday

Maximum temperature yesterday: 85 °F (at 5:53 PM)
Minimum temperature yesterday: 67 °F (at 4:53 AM)
Average temperature yesterday: 75 °F

Past Weeks' High & Low Weather Summary

 TemperatureHumidityPressure
High95 °F (Jun 25, 3:53 PM)100% (Jun 26, 2:53 AM)30.18 "Hg (Jun 26, 2:53 AM)
Low63 °F (Jun 27, 4:53 AM)37% (Jun 28, 4:53 PM)29.74 "Hg (Jul 1, 8:53 PM)
Average77 °F72%29.91 "Hg
* Reported Jun 17 1:53 PM — Jul 2 1:04 PM, Overland Park, Weather by CustomWeather, © 2015

Note: Actual official high and low records may vary slightly from our data, if they occured in-between our weather recording intervals... More about our weather records

Advertising

Overland Park weather history for previous 24 hours

 ConditionsComfort  
Time TempWeatherWind HumidityBarometerVisibility
1:04 PM
Thu, Jul 2
72 °FOvercast.6 mph87%29.93 "Hg10 mi
12:53 PM73 °FMostly cloudy.3 mph84%29.90 "Hg10 mi
11:53 AM71 °FOvercast.8 mph90%29.90 "Hg7 mi
10:59 AM72 °FMostly cloudy.10 mph87%29.91 "Hg7 mi
9:53 AM71 °FFog.12 mph90%29.88 "Hg3 mi
8:55 AM71 °FFog.7 mph93%29.90 "Hg6 mi
7:53 AM70 °FLow clouds.10 mph93%29.85 "Hg8 mi
6:53 AM71 °FLow clouds.8 mph90%29.83 "Hg10 mi
5:53 AM70 °FLow clouds.9 mph93%29.83 "Hg10 mi
4:53 AM71 °FLow clouds.14 mph93%29.80 "Hg10 mi
3:53 AM71 °FLow clouds.12 mph93%29.80 "Hg10 mi
2:53 AM71 °FPassing clouds.6 mph96%29.80 "Hg10 mi
1:53 AM71 °FClear.7 mph90%29.80 "Hg10 mi
12:53 AM72 °FPassing clouds.9 mph78%29.82 "Hg10 mi
11:53 PM
Wed, Jul 1
74 °FPassing clouds.10 mph76%29.78 "Hg10 mi
10:53 PM74 °FMostly cloudy.10 mph82%29.78 "Hg10 mi
9:53 PM75 °FPassing clouds.9 mph79%29.76 "Hg10 mi
8:53 PM84 °FPartly sunny.3 mph74%29.74 "Hg10 mi
7:53 PM84 °FScattered clouds.7 mph77%29.74 "Hg10 mi
6:53 PM85 °FSunny.7 mph77%29.75 "Hg10 mi
5:53 PM85 °FSunny.12 mph75%29.76 "Hg10 mi
4:53 PM83 °FSunny.12 mph77%29.78 "Hg10 mi
3:53 PM82 °FPassing clouds.13 mph74%29.78 "Hg10 mi
2:53 PM83 °FPassing clouds.12 mph74%29.79 "Hg10 mi
Weather by CustomWeather, © 2015

See weather overviewHow to use our weather pages